Portada
METAR-TAF:

METAR-TAF

Aeroports :

Smith Field

Siloam Springs, Arkansas, Estats Units d'Amèrica

latitud: 36-12N, longitud: 094-29W, altitud: 300 m

Observació

L'informe es va fer fa 53 minuts, a les 07:56 UTC
Vent 4 kt del Sud/Sud-Est
Temperatura 18°C
Humitat 88%
Pressió 1020 hPa
Visibilitat: 16.1 km
Cel clar

METAR: KSLG 020756Z AUTO 16004KT 10SM CLR 18/16 A3012 RMK AO2 SLP190 T01780156 TSNO

Hora: 03:49 (08:49 UTC)


TAF: manca

Observacions i pronòstics meteorològics de més de 4000 aeroports (METAR i TAF).

Les estacions disponibles són els punts grocs i vermells al mapa.

Posi el ratolí al punt desitjat per veure el nom de l'estació.

Feu clic per veure les observacions i els pronòstics meteorològics.

Per canviar el mapa: feu clic els botons verds amb una creu de color negre per apropar; al botó verd amb un guió per allunyar la imatge; o en les fletxes verdes per a mapes adjacents.


METAR-TAF: